Flight Track Log - Related Links

Times and Time Zones

All times are in EDT time to prevent confusion due to time zone crossing. See the FLG3861 flight status page for this flight to view local times or setup timezone preferences in your user account.

Time Position Orientation Groundspeed Altitude Reporting Facility
EDT Latitude Longitude Course Direction KTS MPH feet Rate Location/Type
Fri 10:11:07 PM 42.2058 -83.3700 176° South 146 168 1,400  Level Cleveland Center
Fri 10:12:08 PM 42.1558 -83.3656 176° South 208 239 3,000 1,748 Climbing Cleveland Center
Fri 10:12:50 PM 42.1150 -83.3514 166° South 244 281 4,400 1,524 Climbing Cleveland Center
Fri 10:13:11 PM 42.1056 -83.3369 131° Southeast 230 265 4,600 1,902 Climbing Cleveland Center
Fri 10:14:12 PM 42.1083 -83.2244 88° East 291 335 7,000 2,410 Climbing Cleveland Center
Fri 10:15:13 PM 42.1478 -83.1067 66° East 308 354 9,500 1,756 Climbing Cleveland Center
Fri 10:16:15 PM 42.1856 -82.9958 65° Northeast 334 384 10,600 1,122 Climbing Cleveland Center
Fri 10:17:16 PM 42.2275 -82.8681 66° East 372 428 11,800 1,377 Climbing Cleveland Center
Fri 10:18:17 PM 42.2722 -82.7386 65° Northeast 382 440 13,400 1,366 Climbing Cleveland Center
Fri 10:19:19 PM 42.3164 -82.6058 66° East 389 448 14,600 1,122 Climbing Cleveland Center
Fri 10:20:20 PM 42.3597 -82.4708 66° East 392 451 15,700 1,082 Climbing Cleveland Center
Fri 10:21:21 PM 42.3619 -82.3236 89° East 395 455 16,800 984 Climbing Cleveland Center
Fri 10:22:22 PM 42.3558 -82.1767 93° East 392 451 17,700 1,024 Climbing Cleveland Center
Fri 10:23:24 PM 42.3486 -82.0017 93° East 400 460 18,900 927 Climbing Cleveland Center
Fri 10:24:25 PM 42.3414 -81.8456 94° East 409 471 19,600 590 Climbing Cleveland Center
Fri 10:25:26 PM 42.3364 -81.6906 92° East 408 470 20,100 488 Climbing Cleveland Center
Fri 10:26:28 PM 42.3361 -81.5289 90° East 421 484 20,600 488 Climbing Cleveland Center
Fri 10:27:29 PM 42.3364 -81.3692 90° East 422 486 21,100 492 Climbing Cleveland Center
Fri 10:28:30 PM 42.3361 -81.2064 90° East 427 491 21,600 488 Climbing Cleveland Center
Fri 10:29:32 PM 42.3350 -81.0444 90° East 427 491 22,100 488 Climbing Cleveland Center
Fri 10:30:33 PM 42.3353 -80.8831 90° East 426 490 22,600 639 Climbing Cleveland Center
Fri 10:31:34 PM 42.3339 -80.7233 91° East 422 486 23,400 885 Climbing Cleveland Center
Fri 10:32:35 PM 42.3347 -80.5694 90° East 410 472 24,400 780 Climbing Cleveland Center
Fri 10:33:37 PM 42.3336 -80.4175 91° East 404 465 25,000 293 Climbing Cleveland Center
Fri 10:34:38 PM 42.3319 -80.2611 91° East 410 472 25,000  Level Cleveland Center
Fri 10:35:39 PM 42.3289 -80.0969 91° East 429 494 25,000  Level Cleveland Center
Fri 10:36:40 PM 42.3264 -79.9264 91° East 441 507 25,000  Level Cleveland Center
Fri 10:37:41 PM 42.3247 -79.7592 91° East 448 516 25,000  Level Cleveland Center
Fri 10:38:43 PM 42.3225 -79.5906 91° East 452 520 25,000  Level Cleveland Center
Fri 10:39:44 PM 42.3189 -79.3889 91° East 451 519 25,000  Level Cleveland Center
Fri 10:40:45 PM 42.3164 -79.2203 91° East 451 519 25,000  Level Cleveland Center
Fri 10:41:46 PM 42.3122 -79.0525 92° East 450 518 25,000  Level Cleveland Center
Fri 10:42:47 PM 42.3086 -78.8869 92° East 452 520 25,000  Level Cleveland Center
Fri 10:43:48 PM 42.3047 -78.7206 92° East 448 516 25,000  Level Cleveland Center
Fri 10:44:50 PM 42.3011 -78.5542 92° East 446 513 25,000  Level Cleveland Center
Fri 10:45:51 PM 42.2969 -78.3875 92° East 448 516 25,000 -393 Level Cleveland Center
Fri 10:46:52 PM 42.2931 -78.2194 92° East 449 517 24,200 -1,131 Descending Cleveland Center
Fri 10:47:53 PM 42.2867 -78.0117 92° East 462 532 22,700 -1,426 Descending Cleveland Center
Fri 10:48:54 PM 42.2817 -77.8378 92° East 468 539 21,300 -1,180 Descending Cleveland Center
Fri 10:49:55 PM 42.2764 -77.6669 92° East 464 534 20,300 -984 Descending Cleveland Center
Fri 10:50:56 PM 42.2711 -77.4994 92° East 456 525 19,300 -984 Descending Cleveland Center
Fri 10:51:57 PM 42.2644 -77.3344 93° East 450 518 18,300 -984 Descending Cleveland Center
Fri 10:52:58 PM 42.2581 -77.1714 93° East 442 509 17,300 -811 Descending Cleveland Center
Fri 10:53:48 PM 42.2519 -77.0322 93° East 442 509 16,800 -1,200 Descending New York Center
Fri 10:54:48 PM 42.2475 -76.8775 92° East 428 493 15,100 -2,000 Descending New York Center
Fri 10:55:48 PM 42.2386 -76.7200 94° East 405 466 12,800 -2,168 Descending New York Center
Fri 10:56:47 PM 42.2328 -76.5878 93° East 377 434 10,800 -2,089 Descending New York Center
Fri 10:58:03 PM 42.2619 -76.4539 74° East 303 349 8,100 -2,102 Descending Cleveland Center
Fri 10:59:04 PM 42.2844 -76.3639 71° East 293 337 6,000 -2,365 Descending Cleveland Center
Fri 10:59:47 PM 42.3039 -76.2717 74° East 290 334 4,000 -1,143 Descending New York Center
Fri 11:00:49 PM 42.3289 -76.1839 69° East 271 312 4,000 -393 Level New York Center
Fri 11:01:49 PM 42.3178 -76.1072 101° East 238 274 3,200 -454 Descending New York Center
Fri 11:02:48 PM 42.2911 -76.0519 123° Southeast 190 219 3,100 -353 Descending New York Center
Fri 11:03:48 PM 42.2550 -76.0211 148° Southeast 165 190 2,500 -454 Descending New York Center
Fri 11:04:47 PM 42.2294 -75.9853 134° Southeast 152 175 2,200 -305 Descending New York Center

Login

Don't have an account? Register now (free) for customized features, flight alerts, and more!